Home   Weather   Florianópolis   Past weeks

Flag for Brazil Past Weather in Florianópolis, Santa Catarina, Brazil — Yesterday and Last 2 Weeks

Now
66 °F

Passing clouds.


Feels Like: 66 °F
Forecast: 65 / 69 °F
Wind: 3 mph from North

Location: Florianopolis Aeroporto

Current Time: Jun 23, 2017 at 5:30:02 am

Latest Report: Jun 23, 2017 at 5:00 am


Visibility: N/A

Pressure: 30.24 "Hg

Humidity: 94%

Dew Point: 64 °F

Location of FlorianópolisLocation

Past Weather in Florianópolis — Graph

°F

Florianópolis Temperature Yesterday

Maximum temperature yesterday: 68 °F (at 11:00 am)
Minimum temperature yesterday: 61 °F (at 12:00 am)
Average temperature yesterday: 65 °F

High & Low Weather Summary for the Past Weeks

 TemperatureHumidityPressure
High84 °F (Jun 18, 3:00 pm)100% (Jun 8, 5:00 am)30.39 "Hg (Jun 8, 5:00 am)
Low50 °F (Jun 10, 4:00 am)40% (Jun 10, 1:00 pm)29.68 "Hg (Jun 8, 6:00 am)
Average63 °F78%30.10 "Hg
* Reported Jun 8 4:00 am — Jun 23 4:00 am, Florianópolis. Weather by CustomWeather, © 2017

Note: Actual official high and low records may vary slightly from our data, if they occured in-between our weather recording intervals... More about our weather records

Advertising

Florianópolis Weather History for the Previous 24 Hours

Scroll right to see more
 ConditionsComfort  
Time TempWeatherWind HumidityBarometerVisibility
4:00 am
Fri, Jun 23
66 °FPassing clouds.3 mph94%30.24 "HgN/A
3:00 am66 °FPassing clouds.7 mph94%30.24 "HgN/A
2:00 am66 °FPassing clouds.5 mph94%30.24 "HgN/A
1:00 am66 °FPassing clouds.3 mph94%30.24 "HgN/A
12:00 am66 °FPassing clouds.6 mph94%30.27 "HgN/A
11:00 pm
Thu, Jun 22
66 °FPassing clouds.5 mph94%30.27 "HgN/A
10:00 pm64 °FPartly cloudy.2 mph100%30.27 "HgN/A
9:00 pm64 °FPassing clouds.3 mph100%30.27 "HgN/A
8:00 pm64 °FPassing clouds.8 mph100%30.24 "HgN/A
7:00 pm66 °FPassing clouds.8 mph94%N/A2 mi
6:43 pm66 °FPassing clouds.7 mph94%30.24 "Hg3 mi
6:00 pm66 °FPartly cloudy.6 mph88%30.21 "HgN/A
5:00 pm66 °FDrizzle. Broken clouds.7 mph88%30.21 "Hg4 mi
4:00 pm68 °FBroken clouds.7 mph83%30.21 "HgN/A
3:00 pm66 °FScattered showers. Broken clouds.9 mph88%30.21 "Hg3 mi
2:32 pm66 °FDrizzle. Broken clouds.10 mph88%30.21 "Hg3 mi
2:00 pm66 °FBroken clouds.9 mph88%30.24 "Hg5 mi
1:00 pm68 °FPartly sunny.10 mph78%30.24 "HgN/A
12:00 pm66 °FPartly sunny.10 mph83%30.27 "HgN/A
11:30 am68 °FLight rain. Partly sunny.9 mph78%30.27 "Hg3 mi
11:00 am68 °FPartly sunny.10 mph78%30.30 "HgN/A
10:00 am66 °FPartly sunny.9 mph83%30.30 "HgN/A
9:00 am66 °FScattered clouds.7 mph83%30.27 "HgN/A
8:00 am63 °FScattered clouds.6 mph94%30.27 "HgN/A
7:00 am61 °FPassing clouds.5 mph94%30.27 "HgN/A
6:00 am61 °FPassing clouds.5 mph94%30.27 "HgN/A
5:00 am61 °FPassing clouds.3 mph94%30.27 "HgN/A
Weather by CustomWeather, © 2017

See weather overviewHow to use our weather pages